SGDC (42692 NORAD) Tracking and Keplerian Element Data

This shows tracking and keplerian element data for the satellite.

Feedback or suggestion? Click here.




ElementValue
Catalog42692
NameSGDC
Epoch Orbit931
Epoch Day318.06100288
Epoch Year2019
RAAN86.1488
Inclination0.0453
Eccentricity0.0002388
Argument of Perigee146.4049
Mean Anonmoly127.4659
Mean Motion1.00270931
Decay Rate-2.36E-06
L11 42692U 17023B 19318.06100288 -.00000236 00000-0 00000+0 0 9994
L22 42692 0.0453 86.1488 0002388 146.4049 127.4659 1.00270931 9311

Live tracking and technical data element details for SGDC (NORAD 42692). SGDC can be tracked NOW for your location showing map with azimuth and elevation plus other details from your city location.

Track the satellite on the map from your city or location and see movement details for azimuth, elevation, latitude, longitude, range, height, and movement on the map or in text.







IsCatalogInMostPopularTable: catalog: 42692, numindb: 327
Update: records affected: 1



GetName: 42692 SGDC

Hit Count: updated at: Sun, 17 Nov 2019 16:20:02 GMT